Waarnemingen

Advertentie
Mijn weer
Perpignan, Frankrijk (7747): temperatuur & dauwpunt: 18.05.2017 04:00:00 - 24.05.2017 04:00:00 (CEST)Perpignan, Frankrijk (7747): temperatuur 5cm: 18.05.2017 04:00:00 - 24.05.2017 04:00:00 (CEST)Perpignan, Frankrijk (7747): temperatuur -20cm & temperatuur -100cm: 18.05.2017 04:00:00 - 24.05.2017 04:00:00 (CEST)Perpignan, Frankrijk (7747): windsnelheid & windstoten: 18.05.2017 04:00:00 - 24.05.2017 04:00:00 (CEST)Perpignan, Frankrijk (7747): windrichting: 18.05.2017 04:00:00 - 24.05.2017 04:00:00 (CEST)Perpignan, Frankrijk (7747): luchtdruk: 18.05.2017 04:00:00 - 24.05.2017 04:00:00 (CEST)Perpignan, Frankrijk (7747): zicht: 18.05.2017 04:00:00 - 24.05.2017 04:00:00 (CEST)Perpignan, Frankrijk (7747): Zonneschijnduur: 18.05.2017 04:00:00 - 24.05.2017 04:00:00 (CEST)Perpignan, Frankrijk (7747): neerslag: 18.05.2017 04:00:00 - 24.05.2017 04:00:00 (CEST)
Datum & Tijd tt [°C] td [°C] tt 5cm [°C] tt -20cm [°C] tt -100cm [°C] ff [km/u] ff [kn] fx [km/u] fx [kn] dd ppp [hPa] vv [km] sd [min] rr [mm]
24.05.2017 04:00:00 20,6 11,0 18,8 23,4 19,8 13 7 35 19 WNW 1020,1 60 0 0,0
24.05.2017 03:00:00 21,2 10,7 19,6 23,6 19,8 21 12 34 18 NW 1020,2 60 0 0,0
24.05.2017 02:00:00 21,1 10,3 19,6 23,7 19,8 19 10 33 18 NW 1020,4 60 0 0,0
24.05.2017 01:00:00 20,7 10,8 19,5 23,9 19,8 21 11 36 20 NW 1020,4 60 0 0,0
24.05.2017 00:00:00 21,3 10,5 19,7 24,1 19,8 18 10 47 26 NW 1020,3 60 0 0,0
23.05.2017 23:00:00 21,4 11,1 19,0 24,2 19,8 14 8 30 16 W 1020,2 60 0 0,0
23.05.2017 22:00:00 21,4 11,7 20,1 24,3 19,8 19 11 48 26 W 1019,7 60 0 0,0
23.05.2017 21:00:00 22,7 12,0 21,9 24,3 19,8 24 13 42 23 NW 1019,3 60 31 0,0
23.05.2017 20:00:00 24,5 12,4 24,7 24,1 19,8 26 14 43 23 WNW 1019,2 59 60 0,0
23.05.2017 19:00:00 26,0 12,1 28,9 23,9 19,8 27 15 40 22 NW 1019,0 20 60 0,0
23.05.2017 18:00:00 26,8 12,4 31,9 23,6 19,8 18 10 42 23 NW 1019,3 60 60 0,0
23.05.2017 17:00:00 26,8 13,5 32,8 23,2 19,7 24 13 40 22 NW 1019,5 58 60 0,0
23.05.2017 16:00:00 26,6 13,3 34,7 22,8 19,8 25 14 41 22 NW 1019,8 57 60 0,0
23.05.2017 15:00:00 26,7 13,4 35,0 22,4 19,7 24 13 40 22 NW 1019,9 47 60 0,0
23.05.2017 14:00:00 26,8 13,9 34,0 22,0 19,8 22 12 39 21 NW 1020,0 44 60 0,0
23.05.2017 13:00:00 25,5 13,4 32,2 21,7 19,7 27 15 55 30 NW 1020,2 42 60 0,0
23.05.2017 12:00:00 24,4 13,0 30,7 21,6 19,7 32 17 50 27 NW 1020,0 45 60 0,0
23.05.2017 11:00:00 23,6 13,2 28,1 21,5 19,7 29 16 49 26 NNW 1020,1 48 60 0,0
23.05.2017 10:00:00 22,7 13,5 25,9 21,5 19,7 27 15 48 26 NNW 1019,9 54 60 0,0
23.05.2017 09:00:00 21,4 13,6 21,8 21,6 19,7 25 14 40 22 NW 1019,9 60 60 0,0
23.05.2017 08:00:00 20,5 13,7 18,9 21,6 19,7 16 9 31 17 WNW 1019,8 46 38 0,0
23.05.2017 07:00:00 19,8 13,5 19,0 21,7 19,7 15 8 42 23 WNW 1019,2 56 0 0,0
23.05.2017 06:00:00 20,2 13,4 19,4 21,8 19,7 26 14 49 26 NW 1018,6 49 0 0,0
23.05.2017 05:00:00 20,4 13,6 19,5 21,9 19,7 24 13 42 23 WNW 1018,5 52 0 0,0
23.05.2017 04:00:00 20,3 14,6 17,0 22,1 19,7 22 12 39 21 NW 1018,6 44 0 0,0
23.05.2017 03:00:00 18,1 15,5 15,5 22,2 19,7 13 7 21 11 W 1019,0 18 0 0,0
23.05.2017 02:00:00 17,4 15,6 16,6 22,4 19,7 5 3 14 8 WZW 1019,0 14 0 0,0
23.05.2017 01:00:00 17,8 15,8 17,0 22,4 19,6 10 6 14 8 ZW 1019,1 20 0 0,0
23.05.2017 00:00:00 17,8 15,6 17,0 22,5 19,7 3 2 8 5 WNW 1019,2 27 0 0,0
22.05.2017 23:00:00 17,9 15,7 17,1 22,6 19,7 4 2 7 4 WZW 1019,4 26 0 0,0
22.05.2017 22:00:00 18,2 15,6 18,2 22,7 19,7 4 2 6 4 NW 1019,4 37 0 0,0
22.05.2017 21:00:00 18,1 15,7 18,6 22,7 19,6 5 3 11 6 NO 1018,8 30 0 0,0
22.05.2017 20:00:00 18,4 15,6 19,2 22,7 19,6 9 5 16 8 O 1018,5 31 0 0,0
22.05.2017 19:00:00 19,0 15,9 20,6 22,7 19,6 10 5 14 8 ONO 1018,3 37 0 0,0
22.05.2017 18:00:00 19,1 15,6 20,5 22,6 19,6 5 3 15 8 ONO 1018,7 17 0 0,0
22.05.2017 17:00:00 19,3 15,4 21,6 22,6 19,6 10 6 24 13 O 1018,5 30 0 0,0
22.05.2017 16:00:00 19,9 14,9 22,5 22,3 19,6 15 8 21 11 ONO 1018,3 44 0 0,0
22.05.2017 15:00:00 21,5 15,6 28,4 22,1 19,6 13 7 23 12 NO 1018,6 20 27 0,0
22.05.2017 14:00:00 21,4 14,5 27,5 21,9 19,6 10 5 21 11 NO 1018,6 46 8 0,0
22.05.2017 13:00:00 20,8 14,7 24,8 21,8 19,6 12 7 25 13 O 1018,7 43 4 0,0
22.05.2017 12:00:00 21,8 14,4 24,8 21,7 19,5 5 3 17 9 O 1018,3 46 22 0,0
22.05.2017 11:00:00 20,0 14,1 24,3 21,7 19,6 6 4 11 6 NNO 1018,3 33 13 0,0
22.05.2017 10:00:00 19,5 14,7 21,5 21,6 19,6 5 3 8 4 ZO 1018,1 19 33 0,0
22.05.2017 09:00:00 17,7 14,8 18,2 21,7 19,6 4 2 9 5 O 1017,7 19 5 0,0
22.05.2017 08:00:00 16,6 15,0 16,8 21,8 19,6 6 3 13 7 NO 1017,2 15 0 0,0
22.05.2017 07:00:00 16,4 15,3 15,7 22,0 19,6 10 6 14 8 N 1016,6 11 0 0,0
22.05.2017 06:00:00 16,2 14,7 15,9 22,1 19,5 5 3 18 10 NO 1016,2 18 0 0,0
22.05.2017 05:00:00 17,0 15,5 17,0 22,2 19,6 13 7 21 12 N 1015,9 16 0 0,0
22.05.2017 04:00:00 16,9 15,4 17,0 22,4 19,5 12 7 21 11 NNO 1016,1 17 0 0,0
22.05.2017 03:00:00 16,8 15,5 16,6 22,5 19,5 13 7 18 10 NNO 1016,7 17 0 0,0
22.05.2017 02:00:00 16,6 15,5 15,7 22,7 19,5 12 6 17 9 NNO 1017,3 14 0 0,0
22.05.2017 01:00:00 16,4 15,1 15,3 22,9 19,5 11 6 16 9 NNO 1017,7 18 0 0,0
22.05.2017 00:00:00 16,5 13,4 15,1 23,0 19,5 8 4 10 6 N 1018,1 41 0 0,0
21.05.2017 23:00:00 17,1 9,0 13,7 23,1 19,5 6 4 9 5 N 1018,4 60 0 0,0
21.05.2017 22:00:00 18,3 9,1 14,3 23,2 19,5 3 2 9 5 ONO 1018,6 60 0 0,0
21.05.2017 21:00:00 20,0 7,7 17,4 23,1 19,5 6 4 8 5 NO 1018,7 60 18 0,0
21.05.2017 20:00:00 21,8 4,8 22,3 23,0 19,5 6 3 14 8 OZO 1018,9 60 57 0,0
21.05.2017 19:00:00 22,3 2,4 26,0 22,8 19,5 9 5 19 10 OZO 1019,0 60 60 0,0
21.05.2017 18:00:00 22,7 2,7 29,0 22,5 19,5 11 6 27 14 ZO 1019,2 9 60 0,0
21.05.2017 17:00:00 23,1 3,1 29,4 22,1 19,5 16 9 24 13 OZO 1019,5 60 60 0,0
21.05.2017 16:00:00 23,2 3,7 31,2 21,6 19,6 16 9 28 15 OZO 1020,1 60 60 0,0
21.05.2017 15:00:00 23,3 3,2 31,7 21,0 19,5 16 9 29 16 O 1020,4 60 60 0,0
21.05.2017 14:00:00 23,7 6,0 31,5 20,6 19,5 15 8 25 13 O 1020,6 60 60 0,0
21.05.2017 13:00:00 23,4 6,6 32,9 20,3 19,5 11 6 33 18 ZO 1021,5 60 60 0,0
21.05.2017 12:00:00 22,6 5,5 32,1 20,0 19,5 6 3 14 8 ZZW 1021,9 19 60 0,0
21.05.2017 11:00:00 21,6 5,9 31,6 20,0 19,6 5 3 15 8 Z 1022,3 60 46 0,0
21.05.2017 10:00:00 19,8 7,5 26,4 20,0 19,5 8 5 18 10 WZW 1022,5 46 60 0,0
21.05.2017 09:00:00 17,8 8,4 15,5 20,1 19,5 14 8 20 11 W 1022,7 60 60 0,0
21.05.2017 08:00:00 13,3 9,0 9,6 20,2 19,5 6 3 14 8 ZW 1023,2 59 46 0,0
21.05.2017 07:00:00 10,8 7,8 9,7 20,5 19,5 10 5 16 9 WNW 1023,2 60 10 0,0
21.05.2017 06:00:00 11,3 7,8 9,8 20,7 19,5 11 6 21 11 ZW 1023,5 60 0 0,0
21.05.2017 05:00:00 13,2 7,8 11,0 20,9 19,6 10 5 25 13 ZW 1023,3 60 0 0,0
21.05.2017 04:00:00 14,8 7,8 11,9 21,0 19,5 16 9 24 13 WNW 1023,4 60 0 0,0
21.05.2017 03:00:00 15,1 7,4 13,4 21,2 19,6 15 8 19 10 NNW 1024,1 60 0 0,0
21.05.2017 02:00:00 15,6 7,1 9,7 21,4 19,6 12 6 16 9 NW 1024,9 60 0 0,0
21.05.2017 01:00:00 14,6 6,9 10,3 21,6 19,6 5 3 10 6 W 1025,4 60 0 0,0
21.05.2017 00:00:00 16,5 6,0 10,9 21,7 19,5 4 2 10 5 O 1025,3 60 0 0,0
20.05.2017 23:00:00 17,0 6,2 13,1 21,9 19,6 6 3 18 10 NW 1025,1 60 0 0,0
20.05.2017 22:00:00 18,2 6,1 16,8 22,0 19,6 13 7 35 19 N 1024,5 60 0 0,0
20.05.2017 21:00:00 19,2 6,6 18,3 21,9 19,6 16 8 41 22 NNW 1023,9 60 19 0,0
20.05.2017 20:00:00 20,5 6,8 20,3 21,8 19,6 28 15 45 25 NW 1023,4 48 37 0,0
20.05.2017 19:00:00 21,2 7,4 21,4 21,7 19,6 26 14 48 26 NNW 1023,1 60 35 0,0
20.05.2017 18:00:00 21,9 7,7 26,9 21,4 19,6 31 17 52 28 NW 1022,9 60 60 0,0
20.05.2017 17:00:00 22,3 8,4 27,9 21,1 19,6 29 16 51 28 NW 1022,8 32 60 0,0
20.05.2017 16:00:00 22,6 7,2 30,2 20,7 19,6 28 15 56 30 NW 1022,5 33 60 0,0
20.05.2017 15:00:00 22,3 7,7 27,9 20,3 19,6 30 16 51 28 NNW 1022,4 37 60 0,0
20.05.2017 14:00:00 21,2 7,8 27,3 19,9 19,6 35 19 64 34 NW 1022,6 39 60 0,0
20.05.2017 13:00:00 20,4 7,0 27,5 19,7 19,6 37 20 58 31 NW 1023,2 49 60 0,0
20.05.2017 12:00:00 20,2 6,2 27,0 19,6 19,6 35 19 49 27 WNW 1023,3 60 60 0,0
20.05.2017 11:00:00 19,2 4,9 24,1 19,6 19,6 28 15 45 24 NW 1023,0 60 60 0,0
20.05.2017 10:00:00 17,6 4,5 21,9 19,6 19,6 28 15 44 24 WNW 1023,3 60 60 0,0
20.05.2017 09:00:00 15,8 5,4 15,3 19,8 19,6 23 13 36 19 WNW 1023,6 56 60 0,0
20.05.2017 08:00:00 14,2 5,3 10,8 19,9 19,6 13 7 23 13 W 1023,8 59 60 0,0
20.05.2017 07:00:00 12,3 5,0 9,0 20,3 19,6 8 4 16 8 W 1023,5 58 22 0,0
20.05.2017 06:00:00 11,6 5,5 8,2 20,4 19,6 6 4 22 12 NW 1022,9 60 0 0,0
20.05.2017 05:00:00 12,3 5,9 8,7 20,6 19,7 16 9 28 15 NW 1022,5 60 0 0,0
20.05.2017 04:00:00 11,1 6,8 8,8 20,8 19,6 7 4 27 15 WZW 1022,7 60 0 0,0
20.05.2017 03:00:00 13,4 6,5 9,6 21,0 19,6 13 7 16 8 NNW 1022,4 60 0 0,0
20.05.2017 02:00:00 13,0 7,0 10,7 21,2 19,6 8 4 19 10 WNW 1022,7 60 0 0,0
20.05.2017 01:00:00 14,5 6,8 13,1 21,4 19,6 11 6 22 12 NW 1022,7 60 0 0,0
20.05.2017 00:00:00 14,4 7,2 13,2 21,6 19,6 11 6 23 13 NW 1022,8 60 0 0,0
19.05.2017 23:00:00 15,2 7,2 14,6 21,8 19,6 13 7 27 15 WNW 1022,6 60 0 0,0
19.05.2017 22:00:00 15,9 6,9 15,3 21,9 19,6 17 9 35 19 WNW 1021,9 60 0 0,0
19.05.2017 21:00:00 16,0 7,7 14,4 22,1 19,6 21 11 39 21 W 1021,2 60 0 0,0
19.05.2017 20:00:00 18,2 6,1 18,1 22,1 19,6 19 10 35 19 WNW 1020,1 60 0 0,0
19.05.2017 19:00:00 17,4 8,8 17,6 22,2 19,6 8 4 29 16 ZW 1019,5 60 0 0,0
19.05.2017 18:00:00 17,1 8,5 18,1 22,1 19,6 19 10 32 17 ZZW 1019,1 60 0 0,0
19.05.2017 17:00:00 18,9 7,6 20,5 21,8 19,6 19 11 33 18 ZW 1018,6 60 0 0,0
19.05.2017 16:00:00 20,6 3,8 23,9 21,5 19,6 24 13 41 22 WNW 1018,2 60 34 0,0
19.05.2017 15:00:00 21,3 3,9 27,5 21,0 19,6 25 14 44 24 NW 1018,3 47 60 0,0
19.05.2017 14:00:00 20,0 4,9 28,1 20,5 19,6 25 13 48 26 NW 1018,5 19 60 0,0
19.05.2017 13:00:00 19,3 4,6 27,6 20,1 19,6 28 15 48 26 NNW 1018,9 60 60 0,0
19.05.2017 12:00:00 18,2 5,4 24,1 20,0 19,6 24 13 48 26 NW 1019,2 60 60 0,0
19.05.2017 11:00:00 17,2 5,8 23,1 19,7 19,7 24 13 47 25 NW 1019,3 60 60 0,0
19.05.2017 10:00:00 16,0 6,4 18,5 19,8 19,6 21 11 44 24 NW 1019,2 59 60 0,0
19.05.2017 09:00:00 14,7 6,0 13,1 20,1 19,6 28 15 45 24 NW 1019,0 52 60 0,0
19.05.2017 08:00:00 13,4 6,5 10,0 20,2 19,6 18 10 32 17 WNW 1018,7 51 43 0,0
19.05.2017 07:00:00 11,7 6,6 9,1 20,6 19,6 9 5 22 12 WNW 1018,0 60 5 0,0
19.05.2017 06:00:00 11,7 6,4 9,7 20,7 19,6 9 5 18 10 W 1017,7 60 0 0,0
19.05.2017 05:00:00 12,0 6,7 9,9 21,1 19,6 12 7 30 16 WNW 1017,6 60 0 0,0
19.05.2017 04:00:00 11,8 6,3 9,3 21,6 19,4 10 5 23 12 NW 1017,6 60 0 0,0
19.05.2017 03:00:00 11,3 6,6 9,0 21,9 19,5 16 9 28 15 NW 1017,5 60 0 0,0
19.05.2017 02:00:00 10,6 7,3 9,2 22,4 19,5 16 8 33 18 NW 1018,3 60 0 1,4
19.05.2017 01:00:00 9,8 7,4 9,1 22,6 19,5 19 11 51 27 WNW 1018,4 22 0 1,4
19.05.2017 00:00:00 10,3 7,7 9,4 23,1 19,5 34 18 51 27 WNW 1018,2 17 0 1,8
18.05.2017 23:00:00 11,3 8,7 10,3 23,5 19,5 21 12 44 24 NW 1017,8 11 0 0,8
18.05.2017 22:00:00 11,8 8,6 10,5 24,0 19,4 24 13 50 27 NW 1016,9 19 0 1,2
18.05.2017 21:00:00 11,9 9,3 11,0 24,3 19,5 17 9 42 23 NW 1016,2 18 0 2,0
18.05.2017 20:00:00 12,5 10,7 11,9 24,8 19,5 23 12 39 21 NW 1015,9 5 0 2,8
18.05.2017 19:00:00 13,4 11,3 12,9 24,8 19,4 20 11 51 27 NW 1015,4 20 0 0,6
18.05.2017 18:00:00 14,6 11,2 13,4 24,8 19,4 30 16 57 31 NNW 1013,6 25 0 0,0
18.05.2017 17:00:00 20,3 12,0 21,9 24,5 19,4 21 11 60 32 N 1012,9 44 14 0,0
18.05.2017 16:00:00 23,7 14,4 24,8 24,1 19,4 30 16 45 24 OZO 1010,9 25 54 0,0
18.05.2017 15:00:00 22,1 14,2 24,4 23,9 19,4 27 15 50 27 OZO 1011,1 33 15 0,0
18.05.2017 14:00:00 22,9 13,9 26,2 23,4 19,4 29 16 43 23 OZO 1011,2 45 21 0,0
18.05.2017 13:00:00 24,0 15,0 29,2 23,0 19,3 28 15 43 23 OZO 1011,8 60 58 0,0
18.05.2017 12:00:00 22,4 15,3 26,8 22,8 19,3 22 12 39 21 O 1012,5 60 58 0,0
18.05.2017 11:00:00 21,2 14,8 25,7 22,7 19,3 18 10 26 14 O 1013,2 60 53 0,0
18.05.2017 10:00:00 21,4 13,6 25,4 22,8 19,3 9 5 18 10 OZO 1013,9 30 55 0,0
18.05.2017 09:00:00 20,0 12,7 17,9 22,9 19,3 5 3 8 4 ZO 1014,2 55 47 0,0
18.05.2017 08:00:00 16,2 12,9 15,0 23,1 19,3 2 1 6 3 ZZW 1014,4 57 4 0,0
18.05.2017 07:00:00 15,1 12,0 13,4 23,4 19,3 5 3 13 7 WZW 1014,5 56 0 0,0
18.05.2017 06:00:00 14,6 11,7 12,6 23,6 19,3 10 5 13 7 WZW 1014,7 54 0 0,0
18.05.2017 05:00:00 16,2 12,4 13,5 23,9 19,2 4 2 10 5 W 1015,0 60 0 0,0
18.05.2017 04:00:00 16,5 12,5 14,8 24,1 19,2 3 2 9 5 WZW 1015,5 60 0 0,0

tt = temperatuur
td = dauwpunt
tt 5cm = temperatuur 5cm
tt -20cm = temperatuur -20cm
tt -100cm = temperatuur -100cm
ff = windsnelheid
fx = windstoten
dd = windrichting
ppp = luchtdruk
vv = zicht
sd = Zonneschijnduur
rr = neerslag

Weerstations in de omgeving